Regional Weather Roundup
Issued by NWS

Home | Current Version | Previous Version | Text Only | Print | Product List | Glossary Off
Versions: 1 2 3 4 5 6 7 8 9 10 11 12 13 14 15 16 17 18 19 20 21 22 23 24 25 26 27 28 29 30 31 32 33 34 35 36 37 38 39 40 41 42 43 44 45 46 47 48 49 50

000
ASUS43 KMPX 221501
RWRMN
WEATHER ROUNDUP FOR MINNESOTA
NATIONAL WEATHER SERVICE TWIN CITIES/CHANHASSEN MN
1000 AM CDT SUN APR 22 2018


NOTE: "FAIR" INDICATES FEW OR NO CLOUDS BELOW 12,000 FEET WITH NO
SIGNIFICANT WEATHER AND/OR OBSTRUCTIONS TO VISIBILITY. N/A MEANS
CURRENT SKY AND/OR WEATHER CONDITIONS ARE NOT AVAILABLE.

MNZ060>063-068>070-221600-
   Twin Cities Metro

CITY           SKY/WX    TMP DP  RH WIND       PRES   REMARKS
TWIN CITIES    FAIR      51  34  52 S5        30.38S
ST PAUL        FAIR      52  34  50 S6        30.39S
CRYSTAL        FAIR      52  32  46 SE5       30.36F
BLAINE         SUNNY     54  32  43 CALM      30.37S
LAKEVILLE      FAIR      46  37  71 E3        30.37S
EDEN PRAIRIE   FAIR      50  34  54 SE3       30.36S
SOUTH ST PAUL  FAIR      51  32  48 S3        30.37S
LAKE ELMO      FAIR      52  34  50 CALM      30.39S
$$
MNZ001>005-007-008-013>017-022>024-027-028-221600-
   Northwest Minnesota

CITY           SKY/WX    TMP DP  RH WIND       PRES   REMARKS
BEMIDJI        FAIR      52  29  42 SW12G17   30.29S
HALLOCK        FAIR      50  41  71 S16       30.18S
ROSEAU         FAIR      48  37  66 S15       30.20F
WARROAD        FAIR      50  34  53 SW12G20   30.21F
THIEF RVR FALL FAIR      48  34  58 SW18G25   30.25F
CROOKSTON      FAIR      48  37  66 SW14      30.25S
FOSSTON        FAIR      48  30  49 S22       30.27S
DETROIT LAKES  FAIR      52  32  46 S8        30.30S
MOORHEAD       FAIR      48  36  61 S10       30.28F
PARK RAPIDS    FAIR      51  33  50 S10       30.30S
MAHNOMEN       FAIR      48  32  53 S17       30.27F
$$
MNZ006-009>011-018-025>026-221600-
   North Central Minnesota

CITY           SKY/WX    TMP DP  RH WIND       PRES   REMARKS
BAUDETTE       FAIR      52  30  43 S15       30.23F
FLAG ISLAND    FAIR      36  32  87 SE13      30.20F
INTL FALLS     FAIR      52  30  43 SW8       30.28F
WASKISH        CLOUDY    55  36  47 SW10G16   30.26F
BIG FORK       FAIR      52  34  50 SW6       30.31S
LONGVILLE      FAIR      52  30  43 S8        30.32R
GRAND RAPIDS   FAIR      50  34  54 S7        30.34F
CRANE LAKE     FAIR      50  28  43 SW3       30.34R
ORR            FAIR      52  28  40 SW3       30.29F
COOK           FAIR      52  34  50 SW3       30.32F
WALKER         FAIR      51  29  43 S7        30.31S
$$
MNZ012-019>021-037-221600-
   Northeast Minnesota

CITY           SKY/WX    TMP DP  RH WIND       PRES   REMARKS
DULUTH         FAIR      50  26  39 S6        30.34F
ELY            FAIR      52  18  25 SW7       30.33S
HIBBING        FAIR      49  28  44 CALM      30.33F
EVELETH        FAIR      51  30  44 S6        30.34F
DULUTH HARBOR  FAIR      39  28  65 CALM      30.39S
TWO HARBORS    FAIR      55  32  41 S3        30.34F
SILVER BAY     FAIR      52  23  32 S5        30.34F
GRAND MARAIS     N/A     40  28  62 E5        30.38S
G MARAIS ARPRT FAIR      52  16  24 S3        30.35S
$$
MNZ029>031-032-039>041-046>048-054>057-064-221600-
   West Central Minnesota

CITY           SKY/WX    TMP DP  RH WIND       PRES   REMARKS
FERGUS FALLS   FAIR      48  37  66 S12       30.28S
WHEATON        SUNNY     46  36  66 S12       30.31F
MORRIS         SUNNY     46  39  76 S10       30.31F
ALEXANDRIA     FAIR      53  35  50 S9        30.32F
ELBOW LAKE     FAIR      48  37  66 S12       30.31S
WADENA         FAIR      52  36  54 S10       30.30S
GLENWOOD       FAIR      52  36  54 S9        30.33F
APPLETON       CLOUDY    45  36  70 SE3       30.32F
BENSON         MOSUNNY   52  37  58 S8        30.34S
ORTONVILLE     CLOUDY    45  36  70 SE7       30.31S
MADISON        SUNNY     46  39  76 SE5       30.32S
WILLMAR        FAIR      48  37  66 SE6       30.36S
$$
MNZ033>034-036-042>043-049>051-058-059-221600-
   Central Minnesota

CITY           SKY/WX    TMP DP  RH WIND       PRES   REMARKS
ST CLOUD       FAIR      50  35  56 SE8       30.35F
SAUK CENTRE    FAIR      51  36  57 S7        30.34S
PAYNESVILLE    FAIR      51  37  58 S5        30.35S
AITKIN         FAIR      52  30  43 S9        30.33S
PINE RIVER     FAIR      46  32  57 S5        30.35S
BRAINERD       FAIR      52  31  44 S12       30.34F
STAPLES        FAIR      48  34  57 S9        30.32S
LONG PRAIRIE   FAIR      50  36  57 SE10      30.34S
LITTLE FALLS   FAIR      50  27  40 SE5       30.35F
LITCHFIELD     FAIR      52  39  62 SE3       30.35F
BUFFALO        FAIR      51  33  50 SE3       30.37S
MAPLE LAKE     FAIR      51  37  59 SE5       30.37S
HUTCHINSON     FAIR      49  39  67 E5        30.37R
$$
MNZ037-044-045-052-053-221600-
   East Central Minnesota

CITY           SKY/WX    TMP DP  RH WIND       PRES   REMARKS
PRINCETON      FAIR      54  30  40 CALM      30.37S
MORA           FAIR      46  30  53 CALM      30.39S
CAMBRIDGE      FAIR      52  34  50 SW3       30.37F
RUSH CITY      FAIR      49  30  49 CALM      30.38S
MOOSE LAKE     FAIR      50  28  43 CALM      30.34F
HINCKLEY       FAIR      50  30  46 CALM      30.38S
CLOQUET        FAIR      50  19  29 SE3       30.35S
MCGREGOR       FAIR      52  32  46 S5        30.35S
$$
MNZ071>073-080-081-089-090-097-098-221600-
   Southwest Minnesota

CITY           SKY/WX    TMP DP  RH WIND       PRES   REMARKS
MONTEVIDEO     SUNNY     48  39  71 S5        30.33S
GRANITE FALLS  SUNNY     47  39  72 SE6       30.35S
CANBY          SUNNY     44  35  72 CALM      30.33R
MARSHALL       SUNNY     45  36  70 S7        30.34R
REDWOOD FALLS  SUNNY     46  37  71 SE6       30.34S
OLIVIA         SUNNY     50  41  71 SE7       30.34R
PIPESTONE      SUNNY    N/A N/A N/A SE6       30.30S
WINDOM         SUNNY     48  28  46 E3        30.33S
WORTHINGTON    SUNNY     44  38  79 E6        30.32F
JACKSON        CLOUDY    41  34  75 E5        30.33S
TRACY          SUNNY     47  38  71 S5        30.33R
SLAYTON        SUNNY     40  36  84 SE6       30.33R
$$
MNZ065>067-074>077-082>085-091>093-221600-
   South Central Minnesota

CITY           SKY/WX    TMP DP  RH WIND       PRES   REMARKS
MANKATO        FAIR      49  36  61 SE9       30.36S
NEW ULM        SUNNY     45  34  65 E3        30.35S
ST JAMES       SUNNY     39  36  87 E5        30.36S
GLENCOE        FAIR      48  38  68 E5        30.36S
FARIBAULT      FAIR      52  37  58 CALM      30.36F
OWATONNA       FAIR      52  37  58 E5        30.36S
WASECA         FAIR      50  37  62 E6        30.37S
ALBERT LEA     FAIR      45  30  57 E6        30.35S
$$
MNZ078>079-086>088-094>096-221600-
   Southeast Minnesota

CITY           SKY/WX    TMP DP  RH WIND       PRES   REMARKS
ROCHESTER      FAIR      49  37  63 SE8       30.37S
RED WING       FAIR      50  28  43 S3        30.37S
STANTON        FAIR      49  39  68 NE3       30.36F
DODGE CENTER   FAIR      50  36  57 E6        30.36S
WINONA         FAIR      50  32  50 SE5       30.36F
AUSTIN         FAIR      45  36  70 E5        30.35S
PRESTON        FAIR      45  32  61 E3        30.37S
$$
ABBREVIATIONS USED IN REMARKS
   TC - TEMPERATURES IN CELSIUS
  WCI - WIND CHILL INDEX
   HX - HEAT INDEX
  VSB - VISIBILITY
$$



USA.gov is the U.S. government's official web portal to all federal, state and local government web resources and services.